R8AHC-W2 Weather Reports


time (UTC)temp
F
wind
direction
speed
knots
gust
knots
rain 1hr
in
rain 24hr
in
rain mn
in
humidity
%
barometer
mb
20260507145701 65 39 3.5 0.0 0.00 0.00 0.00 63 1011.0
20260507135702 62 320 4.3 0.0 0.00 0.00 0.00 62 1011.0
20260507125702 64 320 4.3 0.0 0.00 0.00 0.00 62 1011.0
20260507115702 66 320 4.3 0.0 0.00 0.00 0.00 62 1011.0
20260507105702 66 312 5.2 0.0 0.00 0.00 0.00 39 1011.0
20260507095701 68 312 5.2 0.0 0.00 0.00 0.00 39 1011.0
20260507085702 70 312 5.2 0.0 0.00 0.00 0.00 39 1011.0
20260507075702 72 312 5.2 0.0 0.00 0.00 0.00 39 1011.0
20260507065702 61 298 3.5 0.0 0.00 0.00 0.00 51 1011.0
20260507055701 63 298 3.5 0.0 0.00 0.00 0.00 51 1011.0
20260507045702 65 298 3.5 0.0 0.00 0.00 0.00 51 1011.0
20260507035701 57 286 2.6 0.0 0.00 0.00 0.00 61 1011.0
20260507025702 59 286 2.6 0.0 0.00 0.00 0.00 61 1011.0
20260507015702 49 202 2.6 0.0 0.00 0.00 0.00 78 1011.0
20260507005702 51 202 2.6 0.0 0.00 0.00 0.00 78 1011.0
20260506235702 44 161 7.0 0.0 0.00 0.00 0.00 52 1011.0
20260506225702 46 161 7.0 0.0 0.00 0.00 0.00 52 1011.0
20260506215702 48 161 7.0 0.0 0.00 0.00 0.00 52 1011.0
20260506205702 50 161 7.0 0.0 0.00 0.00 0.00 52 1011.0
20260506195702 52 161 7.0 0.0 0.00 0.00 0.00 52 1011.0
20260506185702 54 161 7.0 0.0 0.00 0.00 0.00 52 1012.0
20260506175702 56 161 7.0 0.0 0.00 0.00 0.00 52 1012.0
20260506165701 58 161 7.0 0.0 0.00 0.00 0.00 52 1012.0
20260506155701 60 161 7.0 0.0 0.00 0.00 0.00 52 1012.0